Torna al catalogo

COSMOS 2251 DEB

LostLEO
NORAD 39545·DEBRIS·🇷🇺 Russia

Lanciato Jun 16, 1993 da Plesetsk Cosmodrome

Loading…

Prossimi Passaggi (prossime 24 ore)

TLE

ObsoletoSource: Space-Track

Epoca: Sep 2, 2022, 20:20 UTC

1 39545U 93036BUB 22245.84724601  .00001736  00000-0  90195-3 0  9998
2 39545  73.9365  66.3687 0200295 232.0470 192.7781 14.05688482560757

Traccia COSMOS 2251 DEB in tempo reale con AllMySat

Download on the App Store